Weather in Probuzhdenie

Russia / Saratov Oblast     51°26′01″N   46°09′06″E
temp.,
°C
wind,
m/s
gust,
m/s
humid.,
%
clouds,
%
prec.,
mm/h
press.,
hPa
HPBL,
m
29 june, wed
wed2901:00+13ne48720 0.0 1018192
04:00+12nne34760 0.0 101889
07:00+14n34700 0.0 1019226
10:00+18nne45510 0.0 10191187
13:00+20n56436 0.0 10181537
16:00+19ne6649100 0.0 10181160
19:00+18ne4657100 0.0 1018877
22:00+14e3668100 0.0 1019161
30 june, thu
thu3001:00+12s11737 0.0 101938
04:00+13w347412 0.0 1018115
07:00+15nw46670 0.0 1018253
10:00+19nnw34530 0.0 1017929
13:00+21wnw344537 0.0 10161724
16:00+20nw575274 0.0 1014531
19:00+21n354867 0.0 1013785
22:00+18wnw4660100 0.0 101387
1 july, fri
fri101:00+17wnw4461100 0.0 101261
04:00+17wnw59614 0.0 1011252
07:00+15n356977 0.0 1011250
10:00+16nne576665 0.2 1012812
13:00+18n584691 0.1 10122044
16:00+17n894266 0.1 10122191
19:00+16n7105116 0.0 10122198
22:00+12nnw5106659 0.0 1013439
2 july, sat
sat201:00+11nw61084100 0.6 1012711
04:00+11nw589198 2.3 1010374
07:00+13n7118718 0.3 1011930
10:00+14nne587899 0.7 1011977
13:00+17nne8127672 1.9 10111320
16:00+20n91362100 3.5 10101505
19:00+19n711695 1.5 1010784
22:00+15nnw49815 2.2 1011146
3 july, sun
sun301:00+13nnw49805 0.0 1011175
04:00+13nnw47831 0.0 1011131
07:00+15nnw36762 0.0 1012184
10:00+20nnw34590 0.0 1012615
13:00+23nnw34505 0.0 10111292
16:00+24nnw354758 0.0 10111596
19:00+23wnw1159100 0.0 101135
22:00+20nnw226399 0.0 101117